Regional Weather Roundup
Issued by NWS

Home | Current Version | Previous Version | Graphics & Text | Print | Product List | Glossary On
Versions: 1 2 3 4 5 6 7 8 9 10 11 12 13 14 15 16 17 18 19 20 21 22 23 24 25 26 27 28 29 30 31 32 33 34 35 36 37 38 39 40 41 42 43 44 45 46 47 48 49 50
000
ASUS43 KDTX 272201
RWRMI
MICHIGAN HOURLY REGIONAL WEATHER ROUNDUP
NATIONAL WEATHER SERVICE DETROIT/PONTIAC MI
600 PM EDT THU AUG 27 2015

NOTE: "FAIR" INDICATES FEW OR NO CLOUDS BELOW 12,000 FEET WITH NO
SIGNIFICANT WEATHER AND/OR OBSTRUCTION TO VISIBILITY.

MIZ047>049-052>055-059>063-066>070-074>076-081>083-272300-
SOUTHEAST LOWER MICHIGAN

CITY           SKY/WX    TMP DP  RH WIND       PRES   REMARKS
ADRIAN         CLOUDY    68  54  60 NE3       30.19S
ALMA           CLOUDY    70  54  57 SE5       30.16S
ANN ARBOR      CLOUDY    66  53  63 NW6       30.18S
BAD AXE        PTSUNNY   65  53  65 CALM      30.18S
CARO           CLOUDY    65  55  68 CALM      30.17S
DETROIT CITY   CLOUDY    64  54  69 SE5       30.19R
DETROIT        CLOUDY    67  52  58 CALM      30.18S
FLINT          CLOUDY    67  53  61 CALM      30.19R
GROSSE ILE     CLOUDY    66  54  63 CALM      30.17S
HILLSDALE      CLOUDY    67  56  68 N3        30.18F
HOWELL         CLOUDY    64  53  66 W3        30.20R

CITY           SKY/WX    TMP DP  RH WIND       PRES   REMARKS
JACKSON        CLOUDY    65  54  67 CALM      30.19S
LAMBERTVILLE   PTSUNNY   70  55  59 N3        30.18S
LANSING        FAIR      67  53  61 S8        30.18F
LAPEER         CLOUDY    64  53  68 W3        30.19S
MASON          CLOUDY    62  53  73 CALM      30.19S
MONROE         CLOUDY    68  53  58 NW5       30.17S
MT. CLEMENS    CLOUDY    65  54  69 NW5       30.17R
PONTIAC        CLOUDY    63  53  70 W7        30.19R
PORT HOPE        N/A     64  53  67 N3        30.17S
PORT HURON     CLOUDY    63  54  72 NW5       30.19R
TRI CITIES     FAIR      69  54  58 S6        30.17S
MIDLAND        FAIR      70  54  55 SW5       30.15S
TROY           CLOUDY    65  54  65 CALM      30.20S
SAGINAW HB     FAIR      68  55  64 S6        30.17S
$$
MIZ043>046-050>051-056>058-064>065-071>073-077>080-272300-
SOUTHWEST LOWER MICHIGAN

CITY           SKY/WX    TMP DP  RH WIND       PRES   REMARKS
BATTLE CREEK   CLOUDY    68  55  63 SE5       30.18F
BENTON HARBOR  FAIR      68  57  68 VRB5      30.16S
BIG RAPIDS     FAIR      71  56  59 W6        30.14S
COLDWATER      CLOUDY    66  55  66 CALM      30.18S
FREMONT        FAIR      69  57  65 W6        30.15S
HOLLAND        PTSUNNY   71  57  61 NW3       30.17F
GRAND RAPIDS   PTSUNNY   69  55  60 VRB3      30.16F
IONIA          FAIR      69  54  58 S3        30.16S
KALAMAZOO      PTSUNNY   70  55  59 VRB5      30.17S
LUDINGTON      FAIR      71  62  74 SW13      30.14F
MARSHALL       CLOUDY    66  53  64 CALM      30.18S
MOUNT PLEASANT PTSUNNY   73  55  52 SE6       30.15S
MUSKEGON       PTSUNNY   70  55  59 SW7       30.16F
SOUTH HAVEN    PTSUNNY   69  56  64 NW6       30.16S
$$
MIZ016>042-272300-
NORTHERN LOWER MICHIGAN

CITY           SKY/WX    TMP DP  RH WIND       PRES   REMARKS
ALPENA         FAIR      64  53  67 SE7       30.16R
BEAVER ISLAND  FAIR      68  57  67 SW8       30.12S
BELLAIRE       FAIR      72  56  57 CALM      30.12S
CADILLAC       FAIR      72  57  58 W7        30.13S
CHARLEVOIX     FAIR      69  57  66 SW7       30.15S
FRANKFORT      FAIR      67  59  74 SW8G20    30.14R
GAYLORD        FAIR      70  54  56 NW3       30.13F
GRAYLING       FAIR      70  55  57 CALM      30.14S
HARBOR SPRINGS FAIR      68  57  68 SW5       30.12F
HOUGHTON LAKE  FAIR      70  54  56 S5        30.14F
MANISTEE       FAIR      68  55  64 SW8       30.14S
OSCODA         PTSUNNY   63  52  68 E8        30.16S
PELLSTON       FAIR      70  54  56 VRB5      30.12F
ROGERS CITY    FAIR      63  53  69 E5        30.15S
TRAVERSE CITY  FAIR      73  58  59 N6        30.11R
$$
MIZ007>008-015-272300-
EASTERN UPPER MICHIGAN

CITY           SKY/WX    TMP DP  RH WIND       PRES   REMARKS
KINROSS        FAIR      66  55  68 S8        30.11S
MACKINAC ISLAN PTSUNNY   64  51  64 S6        30.12F
NEWBERRY       FAIR      67  55  65 S6        30.10S
S. S. MARIE    FAIR      67  54  63 SE6       30.10S
MUNISING         N/A     69  60  73 NE3       30.07R
$$
MIZ004>006-011>014-085-272300-
CENTRAL UPPER MICHIGAN

CITY           SKY/WX    TMP DP  RH WIND       PRES   REMARKS
MANISTIQUE     FAIR      65  58  76 S8        30.11R
ESCANABA       FAIR      66  59  77 SE8       30.09S
MENOMINEE      FAIR      72  55  56 SW8       30.08S
SAWYER-GWINN   SUNNY     73  48  40 S12       30.08S
$$
MIZ001>003-009>011-084-272300-
WESTERN UPPER MICHIGAN

CITY           SKY/WX    TMP DP  RH WIND       PRES   REMARKS
IRON MOUNTAIN  FAIR      73  55  53 S7        30.06F
HOUGHTON       FAIR      67  55  65 SE6       30.05S
COPPER HARBOR    N/A     66  52  60 SW9       30.04F
IRONWOOD       FAIR      73  54  49 SW8       30.01S
$$

ABBREVIATIONS USED IN REMARKS
   TC - TEMPERATURE IN CELSIUS
  WCI - WIND CHILL INDEX
   HX - HEAT INDEX
  VSB - VISIBILITY



USA.gov is the U.S. government's official web portal to all federal, state and local government web resources and services.